Location: Andrest
(43.3200°N, 0.0641°E)
Time: 13:49:23
(UTC+00:00)

Cosmos 1782 - Pass Details

Date: 01 December 2020
Orbit: 537 x 551 km, 82.5° (Epoch: 24 January)

Event Time Altitude Azimuth Distance (km) Brightness Sun altitude
Rises 17:53:47 0° 193° (SSW) 2,681 6.7 -15.7°
Reaches altitude 10° 17:55:56 10° 196° (SSW) 1,797 5.9 -16.1°
Maximum altitude 17:59:52 66° 280° (W) 596 3.1 -16.8°
Drops below altitude 10° 18:03:51 10° 3° (N) 1,820 5.3 -17.5°
Enters shadow 18:05:02 - 5° (N) 2,303 5.8 -17.7°
